Observer details:
046 Klet.  Observers J. Ticha, M. Tichy.  0.57-m f/5.2 reflector + CCD.
113 Volkssternwarte Drebach, Schoenbrunn.  Observers G. Lehmann, J. Kandler,
    A. Knoefel.  0.50-m f/4.0 reflector + CCD.
118 Modra.  Observers A. Galad, J. Toth.  0.6-m f/5.5 reflector + CCD.
151 Eschenberg Observatory, Winterthur.  Observer M. Griesser.  0.40-m f/5.8
    Hypergraph.
157 Frasso Sabino.  Observers A. Pelloni, R. Haver. 0.20-m f/6.3
    Schmidt-Cassegrain + CCD.
165 Piera Observatory, Barcelona.  Observer J. Guarro.  0.40-m f/2 Schmidt
    + CCD.
428 Reedy Creek.  Observer J. Broughton.  0.25-m f/6.3 Schmidt-Cassegrain
    + CCD.
540 Linz.  Observer E. Meyer.  0.6-m f/3.0 reflector + CCD.
557 Ondrejov.  Observers P. Pravec, L. Sarounova.  0.65-m f/3.6
    reflector + CCD.
595 Farra d'Isonzo.  Observers G. Lombardi, E. Pettarin.
    0.40-m f/4.5 reflector + CCD.
608 Haleakala-NEAT/MSSS.  Observers E. F. Helin, S. Pravdo, K. Lawrence,
    P. Kervin, R. Maeda, J. Africano, M. Hicks.  1.2-m reflector + CCD.
611 Starkenburg.  Observer M. Busch.  0.45-m f/4.4 reflector + CCD.
629 JATE Observatory, Szeged.  Observers K. Sarneczky, L. Kiss,
    A. Derekas.  Measurer K. Sarneczky. 0.40-m Cassegrain + CCD.
644 Palomar Mountain/NEAT.  Observers E. F. Helin, S. Pravdo, K. Lawrence,
    M. Hicks, E. Hovland, T. Bickler, J. Schroeder, L. Scherr, R. Thicksten,
    A. Deetz.  1.2-m Schmidt + CCD.
649 Powell Observatory, Louisburg.  Observers K. Smalley, R. Fredrick.
    Measurer R. Fredrick.  0.75-m Newtonian + CCD.
739 Sunflower Observatory, Olathe.  Observer L. Robinson.  0.25-m
    Schmidt-Cassegrain + CCD.
926 Tenagra II Observatory.  Observer M. Schwartz.  Measurer P. R. Holvorcem.
    0.5-m f/10 Ritchey-Chretien + CCD.

Orbital elements:
2001 JM1
Epoch 2001 May 11.0 TT = JDT 2452040.5                  Spahr
M  20.81479              (2000.0)            P               Q
n   0.55934191     Peri.  321.72076     -0.96917735     +0.12275316
a   1.4588741      Node   226.78326     -0.08054264     -0.97725782
e   0.3100970      Incl.   17.04385     -0.23282644     -0.17291276
P   1.76           H   19.0           G   0.15
From 98 observations 2001 May 12-14.

Ephemeris:
2001 JM1                 a,e,i = 1.46, 0.31, 17                  q = 1.0065
Date    TT    R. A. (2000) Decl.     Delta      r     Elong.  Phase     V
2001 05 11    13 15.42   +00 46.7    0.066    1.065   145.9    32.1    14.6
2001 05 16    14 11.50   +13 14.2    0.087    1.081   142.2    35.0    15.3
2001 05 21    14 46.86   +19 44.0    0.114    1.098   137.1    38.8    16.0
2001 05 26    15 10.21   +23 02.3    0.143    1.117   133.4    41.2    16.6
2001 05 31    15 26.64   +24 39.1    0.175    1.136   130.8    42.5    17.1
2001 06 05    15 38.91   +25 17.4    0.207    1.156   129.0    43.0    17.6
2001 06 10    15 48.60   +25 19.1    0.240    1.177   127.5    43.1    17.9

2001 06 20    16 03.69   +24 13.8    0.309    1.221   125.3    42.8    18.5
2001 06 30    16 16.38   +22 12.5    0.381    1.267   123.3    42.1    19.1
2001 07 10    16 28.61   +19 40.4    0.457    1.313   121.2    41.4    19.5
2001 07 20    16 41.22   +16 52.2    0.537    1.359   118.9    40.9    19.9
2001 07 30    16 54.73   +13 58.0    0.621    1.405   116.3    40.4    20.3
2001 08 09    17 09.28   +11 06.3    0.711    1.450   113.3    39.9    20.6
2001 08 19    17 24.87   +08 22.6    0.805    1.494   110.1    39.5    21.0
2001 08 29    17 41.51   +05 51.0    0.906    1.536   106.5    39.1    21.3
2001 09 08    17 59.07   +03 35.1    1.011    1.577   102.7    38.6    21.6

Timothy B. Spahr             (C) Copyright 2001 MPC           M.P.E.C. 2001-J30

Read MPEC 2001-J29 Read MPEC 2001-J31


Our Web policy. Index to the CBAT/MPC/ICQ pages.

